Location: Altleiningen
(49.5078°N, 8.0741°E)
Time: 05:06:50
(UTC+00:00)

FALCON 9 DEB - Pass Details

Date: 03 March 2021
Orbit: 371 x 390 km, 53.0° (Epoch: 11 April)

Event Time Altitude Azimuth Distance (km) Brightness Sun altitude
Rises 18:27:38 0° 281° (W) 2,297 8.8 -12.8°
Reaches altitude 10° 18:29:46 10° 288° (WNW) 1,441 7.1 -13.1°
Maximum altitude 18:32:52 42° 1° (N) 580 3.7 -13.6°
Enters shadow 18:34:27 23° 60° (ENE) 893 4.2 -13.9°
